Location: Newark
(43.6583°N, 1.6617°E)
Time: 22:36:53
(UTC+00:00)

Tiros 1 - Pass Details

Date: 25 August 2019
Orbit: 631 x 664 km, 48.4° (Epoch: 17 September)

Event Time Altitude Azimuth Distance (km) Brightness Sun altitude
Exits shadow 02:21:13 41° 328° (NNW) 933 8.0 -26.2°
Maximum altitude 02:22:15 48° 7° (N) 833 7.9 -26.1°
Drops below altitude 10° 02:26:47 10° 82° (E) 2,034 10.3 -25.5°
Sets 02:29:12 0° 88° (E) 2,948 11.2 -25.2°
